Year,Month,Day,Hour,Minute,Value (Times are PST for windgust in km/hr)
2016,10,16,00,00,17.70
2016,10,16,00,01,20.90
2016,10,16,00,02,20.90
2016,10,16,00,03,16.10
2016,10,16,00,04,20.90
2016,10,16,00,05,20.90
2016,10,16,00,06,22.50
2016,10,16,00,07,14.50
2016,10,16,00,08,16.10
2016,10,16,00,09,25.70
2016,10,16,00,10,19.30
2016,10,16,00,11,30.60
2016,10,16,00,12,25.70
2016,10,16,00,13,22.50
2016,10,16,00,14,22.50
2016,10,16,00,15,19.30
2016,10,16,00,16,29.00
2016,10,16,00,17,20.90
2016,10,16,00,18,14.50
2016,10,16,00,19,24.20
2016,10,16,00,20,17.70
2016,10,16,00,21,19.30
2016,10,16,00,22,12.90
2016,10,16,00,23,25.70
2016,10,16,00,24,22.50
2016,10,16,00,25,25.70
2016,10,16,00,26,24.20
2016,10,16,00,27,24.20
2016,10,16,00,28,29.00
2016,10,16,00,29,22.50
2016,10,16,00,30,25.70
2016,10,16,00,31,30.60
2016,10,16,00,32,27.40
2016,10,16,00,33,17.70
2016,10,16,00,34,20.90
2016,10,16,00,35,17.70
2016,10,16,00,36,20.90
2016,10,16,00,37,33.80
2016,10,16,00,38,33.80
2016,10,16,00,39,25.70
2016,10,16,00,40,24.20
2016,10,16,00,41,29.00
2016,10,16,00,42,29.00
2016,10,16,00,43,12.90
2016,10,16,00,44,16.10
2016,10,16,00,45,14.50
2016,10,16,00,46,27.40
2016,10,16,00,47,20.90
2016,10,16,00,48,12.90
2016,10,16,00,49,19.30
2016,10,16,00,50,32.20
2016,10,16,00,51,22.50
2016,10,16,00,52,17.70
2016,10,16,00,53,35.40
2016,10,16,00,54,24.20
2016,10,16,00,55,12.90
2016,10,16,00,56,12.90
2016,10,16,00,57,25.70
2016,10,16,00,58,14.50
2016,10,16,00,59,19.30
2016,10,16,01,00,24.20
2016,10,16,01,01,32.20
2016,10,16,01,02,33.80
2016,10,16,01,03,38.60
2016,10,16,01,04,20.90
2016,10,16,01,05,32.20
2016,10,16,01,06,33.80
2016,10,16,01,07,30.60
2016,10,16,01,08,27.40
2016,10,16,01,09,19.30
2016,10,16,01,10,29.00
2016,10,16,01,11,32.20
2016,10,16,01,12,22.50
2016,10,16,01,13,32.20
2016,10,16,01,14,30.60
2016,10,16,01,15,30.60
2016,10,16,01,16,32.20
2016,10,16,01,17,29.00
2016,10,16,01,18,32.20
2016,10,16,01,19,35.40
2016,10,16,01,20,33.80
2016,10,16,01,21,35.40
2016,10,16,01,22,30.60
2016,10,16,01,23,30.60
2016,10,16,01,24,32.20
2016,10,16,01,25,19.30
2016,10,16,01,26,29.00
2016,10,16,01,27,29.00
2016,10,16,01,28,30.60
2016,10,16,01,29,32.20
2016,10,16,01,30,27.40
2016,10,16,01,31,29.00
2016,10,16,01,32,24.20
2016,10,16,01,33,22.50
2016,10,16,01,34,22.50
2016,10,16,01,35,20.90
2016,10,16,01,36,24.20
2016,10,16,01,37,35.40
2016,10,16,01,38,35.40
2016,10,16,01,39,29.00
2016,10,16,01,40,27.40
2016,10,16,01,41,29.00
2016,10,16,01,42,27.40
2016,10,16,01,43,30.60
2016,10,16,01,44,30.60
2016,10,16,01,45,37.00
2016,10,16,01,46,32.20
2016,10,16,01,47,32.20
2016,10,16,01,48,33.80
2016,10,16,01,49,32.20
2016,10,16,01,50,32.20
2016,10,16,01,51,32.20
2016,10,16,01,52,29.00
2016,10,16,01,53,30.60
2016,10,16,01,54,25.70
2016,10,16,01,55,24.20
2016,10,16,01,56,24.20
2016,10,16,01,57,17.70
2016,10,16,01,58,20.90
2016,10,16,01,59,22.50
2016,10,16,02,00,20.90
2016,10,16,02,01,22.50
2016,10,16,02,02,24.20
2016,10,16,02,03,25.70
2016,10,16,02,04,24.20
2016,10,16,02,05,19.30
2016,10,16,02,06,19.30
2016,10,16,02,07,19.30
2016,10,16,02,08,14.50
2016,10,16,02,09,20.90
2016,10,16,02,10,17.70
2016,10,16,02,11,17.70
2016,10,16,02,12,17.70
2016,10,16,02,13,14.50
2016,10,16,02,14,14.50
2016,10,16,02,15,12.90
2016,10,16,02,16,12.90
2016,10,16,02,17,9.60
2016,10,16,02,18,8.10
2016,10,16,02,19,11.30
2016,10,16,02,20,12.90
2016,10,16,02,21,11.30
2016,10,16,02,22,6.40
2016,10,16,02,23,11.30
2016,10,16,02,24,9.60
2016,10,16,02,25,11.30
2016,10,16,02,26,14.50
2016,10,16,02,27,12.90
2016,10,16,02,28,16.10
2016,10,16,02,29,20.90
2016,10,16,02,30,12.90
2016,10,16,02,31,20.90
2016,10,16,02,32,25.70
2016,10,16,02,33,27.40
2016,10,16,02,34,20.90
2016,10,16,02,35,25.70
2016,10,16,02,36,19.30
2016,10,16,02,37,20.90
2016,10,16,02,38,20.90
2016,10,16,02,39,22.50
2016,10,16,02,40,17.70
2016,10,16,02,41,20.90
2016,10,16,02,42,19.30
2016,10,16,02,43,17.70
2016,10,16,02,44,17.70
2016,10,16,02,45,12.90
2016,10,16,02,46,14.50
2016,10,16,02,47,11.30
2016,10,16,02,48,14.50
2016,10,16,02,49,9.60
2016,10,16,02,50,8.10
2016,10,16,02,51,9.60
2016,10,16,02,52,8.10
2016,10,16,02,53,4.80
2016,10,16,02,54,3.20
2016,10,16,02,55,6.40
2016,10,16,02,56,4.80
2016,10,16,02,57,4.80
2016,10,16,02,58,12.90
2016,10,16,02,59,17.70
2016,10,16,03,00,11.30
2016,10,16,03,01,12.90
2016,10,16,03,02,12.90
2016,10,16,03,03,9.60
2016,10,16,03,04,14.50
2016,10,16,03,05,11.30
2016,10,16,03,06,12.90
2016,10,16,03,07,14.50
2016,10,16,03,08,12.90
2016,10,16,03,09,14.50
2016,10,16,03,10,8.10
2016,10,16,03,11,6.40
2016,10,16,03,12,4.80
2016,10,16,03,13,8.10
2016,10,16,03,14,6.40
2016,10,16,03,15,6.40
2016,10,16,03,16,6.40
2016,10,16,03,17,8.10
2016,10,16,03,18,12.90
2016,10,16,03,19,14.50
2016,10,16,03,20,17.70
2016,10,16,03,21,14.50
2016,10,16,03,22,11.30
2016,10,16,03,23,6.40
2016,10,16,03,24,6.40
2016,10,16,03,25,6.40
2016,10,16,03,26,3.20
2016,10,16,03,27,3.20
2016,10,16,03,28,3.20
2016,10,16,03,29,6.40
2016,10,16,03,30,3.20
2016,10,16,03,31,3.20
2016,10,16,03,32,1.60
2016,10,16,03,36,1.60
2016,10,16,03,37,3.20
2016,10,16,03,39,1.60
2016,10,16,03,40,1.60
2016,10,16,03,44,1.60
2016,10,16,03,47,1.60
2016,10,16,03,48,1.60
2016,10,16,03,49,1.60
2016,10,16,03,55,1.60
2016,10,16,03,57,1.60
2016,10,16,03,58,1.60
2016,10,16,04,02,1.60
2016,10,16,04,03,3.20
2016,10,16,04,04,3.20
2016,10,16,04,05,1.60
2016,10,16,04,06,3.20
2016,10,16,04,07,3.20
2016,10,16,04,08,3.20
2016,10,16,04,09,3.20
2016,10,16,04,10,3.20
2016,10,16,04,22,3.20
2016,10,16,04,23,1.60
2016,10,16,04,26,3.20
2016,10,16,04,27,6.40
2016,10,16,05,05,6.40
2016,10,16,05,06,6.40
2016,10,16,05,07,3.20
2016,10,16,05,08,1.60
2016,10,16,05,09,1.60
2016,10,16,05,10,9.60
2016,10,16,05,11,8.10
2016,10,16,05,12,9.60
2016,10,16,05,13,8.10
2016,10,16,05,14,8.10
2016,10,16,05,15,8.10
2016,10,16,05,16,9.60
2016,10,16,05,17,14.50
2016,10,16,05,18,12.90
2016,10,16,05,19,9.60
2016,10,16,05,20,9.60
2016,10,16,05,21,8.10
2016,10,16,05,22,8.10
2016,10,16,05,23,8.10
2016,10,16,05,24,3.20
2016,10,16,05,25,8.10
2016,10,16,05,26,8.10
2016,10,16,05,27,6.40
2016,10,16,05,28,8.10
2016,10,16,05,29,20.90
2016,10,16,05,30,17.70
2016,10,16,05,31,19.30
2016,10,16,05,32,17.70
2016,10,16,05,33,29.00
2016,10,16,05,34,27.40
2016,10,16,05,35,27.40
2016,10,16,05,36,22.50
2016,10,16,05,37,20.90
2016,10,16,05,38,25.70
2016,10,16,05,39,22.50
2016,10,16,05,40,19.30
2016,10,16,05,41,24.20
2016,10,16,05,42,22.50
2016,10,16,05,43,25.70
2016,10,16,05,44,22.50
2016,10,16,05,45,24.20
2016,10,16,05,46,27.40
2016,10,16,05,47,24.20
2016,10,16,05,48,19.30
2016,10,16,05,49,24.20
2016,10,16,05,50,22.50
2016,10,16,05,51,29.00
2016,10,16,05,52,22.50
2016,10,16,05,53,22.50
2016,10,16,05,54,29.00
2016,10,16,05,55,20.90
2016,10,16,05,56,14.50
2016,10,16,05,57,19.30
2016,10,16,05,58,14.50
2016,10,16,05,59,19.30
2016,10,16,06,00,22.50
2016,10,16,06,01,20.90
2016,10,16,06,02,17.70
2016,10,16,06,03,17.70
2016,10,16,06,04,17.70
2016,10,16,06,05,17.70
2016,10,16,06,06,12.90
2016,10,16,06,07,17.70
2016,10,16,06,08,17.70
2016,10,16,06,09,12.90
2016,10,16,06,10,17.70
2016,10,16,06,11,17.70
2016,10,16,06,12,20.90
2016,10,16,06,13,20.90
2016,10,16,06,14,12.90
2016,10,16,06,15,14.50
2016,10,16,06,16,24.20
2016,10,16,06,17,20.90
2016,10,16,06,18,12.90
2016,10,16,06,19,17.70
2016,10,16,06,20,17.70
2016,10,16,06,21,22.50
2016,10,16,06,22,19.30
2016,10,16,06,23,12.90
2016,10,16,06,24,14.50
2016,10,16,06,25,12.90
2016,10,16,06,26,17.70
2016,10,16,06,27,14.50
2016,10,16,06,28,11.30
2016,10,16,06,29,12.90
2016,10,16,06,30,11.30
2016,10,16,06,31,12.90
2016,10,16,06,32,9.60
2016,10,16,06,33,12.90
2016,10,16,06,34,12.90
2016,10,16,06,35,9.60
2016,10,16,06,36,8.10
2016,10,16,06,37,3.20
2016,10,16,06,38,12.90
2016,10,16,06,39,14.50
2016,10,16,06,40,9.60
2016,10,16,06,41,17.70
2016,10,16,06,42,19.30
2016,10,16,06,43,17.70
2016,10,16,06,44,12.90
2016,10,16,06,45,11.30
2016,10,16,06,46,17.70
2016,10,16,06,47,14.50
2016,10,16,06,48,12.90
2016,10,16,06,49,11.30
2016,10,16,06,50,14.50
2016,10,16,06,51,12.90
2016,10,16,06,52,12.90
2016,10,16,06,53,17.70
2016,10,16,06,54,17.70
2016,10,16,06,55,14.50
2016,10,16,06,56,12.90
2016,10,16,06,57,14.50
2016,10,16,06,58,17.70
2016,10,16,06,59,16.10
2016,10,16,07,00,12.90
2016,10,16,07,01,14.50
2016,10,16,07,02,14.50
2016,10,16,07,03,12.90
2016,10,16,07,04,11.30
2016,10,16,07,05,8.10
2016,10,16,07,06,6.40
2016,10,16,07,07,12.90
2016,10,16,07,08,9.60
2016,10,16,07,09,8.10
2016,10,16,07,10,9.60
2016,10,16,07,11,9.60
2016,10,16,07,12,8.10
2016,10,16,07,13,9.60
2016,10,16,07,14,9.60
2016,10,16,07,15,12.90
2016,10,16,07,16,11.30
2016,10,16,07,17,11.30
2016,10,16,07,18,11.30
2016,10,16,07,19,9.60
2016,10,16,07,20,11.30
2016,10,16,07,21,14.50
2016,10,16,07,22,12.90
2016,10,16,07,23,11.30
2016,10,16,07,24,6.40
2016,10,16,07,25,11.30
2016,10,16,07,26,14.50
2016,10,16,07,27,11.30
2016,10,16,07,28,11.30
2016,10,16,07,29,9.60
2016,10,16,07,30,12.90
2016,10,16,07,31,12.90
2016,10,16,07,32,14.50
2016,10,16,07,33,12.90
2016,10,16,07,34,11.30
2016,10,16,07,35,9.60
2016,10,16,07,36,11.30
2016,10,16,07,37,9.60
2016,10,16,07,38,9.60
2016,10,16,07,39,11.30
2016,10,16,07,40,11.30
2016,10,16,07,41,6.40
2016,10,16,07,42,6.40
2016,10,16,07,43,8.10
2016,10,16,07,44,8.10
2016,10,16,07,45,8.10
2016,10,16,07,46,6.40
2016,10,16,07,47,6.40
2016,10,16,07,48,6.40
2016,10,16,07,49,6.40
2016,10,16,07,50,9.60
2016,10,16,07,51,8.10
2016,10,16,07,52,8.10
2016,10,16,07,53,9.60
2016,10,16,07,54,8.10
2016,10,16,07,55,3.20
2016,10,16,07,56,9.60
2016,10,16,07,57,4.80
2016,10,16,07,58,8.10
2016,10,16,07,59,9.60
2016,10,16,08,00,11.30
2016,10,16,08,01,9.60
2016,10,16,08,02,9.60
2016,10,16,08,03,8.10
2016,10,16,08,04,8.10
2016,10,16,08,05,11.30
2016,10,16,08,06,9.60
2016,10,16,08,07,8.10
2016,10,16,08,08,11.30
2016,10,16,08,09,11.30
2016,10,16,08,10,14.50
2016,10,16,08,11,11.30
2016,10,16,08,12,11.30
2016,10,16,08,13,11.30
2016,10,16,08,14,9.60
2016,10,16,08,15,8.10
2016,10,16,08,16,8.10
2016,10,16,08,17,9.60
2016,10,16,08,18,9.60
2016,10,16,08,19,4.80
2016,10,16,08,20,12.90
2016,10,16,08,21,14.50
2016,10,16,08,22,11.30
2016,10,16,08,23,11.30
2016,10,16,08,24,8.10
2016,10,16,08,25,14.50
2016,10,16,08,26,8.10
2016,10,16,08,27,9.60
2016,10,16,08,28,6.40
2016,10,16,08,29,11.30
2016,10,16,08,30,9.60
2016,10,16,08,31,12.90
2016,10,16,08,32,11.30
2016,10,16,08,33,14.50
2016,10,16,08,34,9.60
2016,10,16,08,35,11.30
2016,10,16,08,36,14.50
2016,10,16,08,37,12.90
2016,10,16,08,38,19.30
2016,10,16,08,39,12.90
2016,10,16,08,40,17.70
2016,10,16,08,41,12.90
2016,10,16,08,42,19.30
2016,10,16,08,43,19.30
2016,10,16,08,44,12.90
2016,10,16,08,45,22.50
2016,10,16,08,46,29.00
2016,10,16,08,47,29.00
2016,10,16,08,48,22.50
2016,10,16,08,49,29.00
2016,10,16,08,50,30.60
2016,10,16,08,51,22.50
2016,10,16,08,52,24.20
2016,10,16,08,53,20.90
2016,10,16,08,54,29.00
2016,10,16,08,55,27.40
2016,10,16,08,56,19.30
2016,10,16,08,57,20.90
2016,10,16,08,58,29.00
2016,10,16,08,59,27.40
2016,10,16,09,00,14.50
2016,10,16,09,01,25.70
2016,10,16,09,02,22.50
2016,10,16,09,03,32.20
2016,10,16,09,04,30.60
2016,10,16,09,05,22.50
2016,10,16,09,06,22.50
2016,10,16,09,07,29.00
2016,10,16,09,08,30.60
2016,10,16,09,09,20.90
2016,10,16,09,10,24.20
2016,10,16,09,11,20.90
2016,10,16,09,12,22.50
2016,10,16,09,13,25.70
2016,10,16,09,14,19.30
2016,10,16,09,15,24.20
2016,10,16,09,16,24.20
2016,10,16,09,17,24.20
2016,10,16,09,18,17.70
2016,10,16,09,19,14.50
2016,10,16,09,20,22.50
2016,10,16,09,21,24.20
2016,10,16,09,22,14.50
2016,10,16,09,23,17.70
2016,10,16,09,24,19.30
2016,10,16,09,25,19.30
2016,10,16,09,26,20.90
2016,10,16,09,27,12.90
2016,10,16,09,28,22.50
2016,10,16,09,29,24.20
2016,10,16,09,30,20.90
2016,10,16,09,31,12.90
2016,10,16,09,32,19.30
2016,10,16,09,33,14.50
2016,10,16,09,34,14.50
2016,10,16,09,35,17.70
2016,10,16,09,36,12.90
2016,10,16,09,37,22.50
2016,10,16,09,38,24.20
2016,10,16,09,39,22.50
2016,10,16,09,40,19.30
2016,10,16,09,41,19.30
2016,10,16,09,42,24.20
2016,10,16,09,43,24.20
2016,10,16,09,44,20.90
2016,10,16,09,45,19.30
2016,10,16,09,46,22.50
2016,10,16,09,47,24.20
2016,10,16,09,48,19.30
2016,10,16,09,49,20.90
2016,10,16,09,50,20.90
2016,10,16,09,51,22.50
2016,10,16,09,52,17.70
2016,10,16,09,53,30.60
2016,10,16,09,54,25.70
2016,10,16,09,55,20.90
2016,10,16,09,56,22.50
2016,10,16,09,57,17.70
2016,10,16,09,58,27.40
2016,10,16,09,59,20.90
2016,10,16,10,00,20.90
2016,10,16,10,01,20.90
2016,10,16,10,02,24.20
2016,10,16,10,03,24.20
2016,10,16,10,04,19.30
2016,10,16,10,05,19.30
2016,10,16,10,06,30.60
2016,10,16,10,07,32.20
2016,10,16,10,08,29.00
2016,10,16,10,09,35.40
2016,10,16,10,10,37.00
2016,10,16,10,11,30.60
2016,10,16,10,12,30.60
2016,10,16,10,13,29.00
2016,10,16,10,14,30.60
2016,10,16,10,15,30.60
2016,10,16,10,16,24.20
2016,10,16,10,17,25.70
2016,10,16,10,18,33.80
2016,10,16,10,19,33.80
2016,10,16,10,20,20.90
2016,10,16,10,21,24.20
2016,10,16,10,22,32.20
2016,10,16,10,23,30.60
2016,10,16,10,24,19.30
2016,10,16,10,25,22.50
2016,10,16,10,26,22.50
2016,10,16,10,27,24.20
2016,10,16,10,28,17.70
2016,10,16,10,29,27.40
2016,10,16,10,30,22.50
2016,10,16,10,31,24.20
2016,10,16,10,32,30.60
2016,10,16,10,33,29.00
2016,10,16,10,34,24.20
2016,10,16,10,35,22.50
2016,10,16,10,36,22.50
2016,10,16,10,37,29.00
2016,10,16,10,38,29.00
2016,10,16,10,39,29.00
2016,10,16,10,40,29.00
2016,10,16,10,41,20.90
2016,10,16,10,42,20.90
2016,10,16,10,43,29.00
2016,10,16,10,44,22.50
2016,10,16,10,45,24.20
2016,10,16,10,46,24.20
2016,10,16,10,47,25.70
2016,10,16,10,48,35.40
2016,10,16,10,49,25.70
2016,10,16,10,50,30.60
2016,10,16,10,51,27.40
2016,10,16,10,52,37.00
2016,10,16,10,53,30.60
2016,10,16,10,54,20.90
2016,10,16,10,55,25.70
2016,10,16,10,56,24.20
2016,10,16,10,57,25.70
2016,10,16,10,58,25.70
2016,10,16,10,59,19.30
2016,10,16,11,00,17.70
2016,10,16,11,01,19.30
2016,10,16,11,02,22.50
2016,10,16,11,03,16.10
2016,10,16,11,04,20.90
2016,10,16,11,05,32.20
2016,10,16,11,06,27.40
2016,10,16,11,07,24.20
2016,10,16,11,08,29.00
2016,10,16,11,09,19.30
2016,10,16,11,10,25.70
2016,10,16,11,11,19.30
2016,10,16,11,12,14.50
2016,10,16,11,13,32.20
2016,10,16,11,14,25.70
2016,10,16,11,15,20.90
2016,10,16,11,16,14.50
2016,10,16,11,17,19.30
2016,10,16,11,18,12.90
2016,10,16,11,19,17.70
2016,10,16,11,20,20.90
2016,10,16,11,21,24.20
2016,10,16,11,22,22.50
2016,10,16,11,23,22.50
2016,10,16,11,24,19.30
2016,10,16,11,25,14.50
2016,10,16,11,26,20.90
2016,10,16,11,27,25.70
2016,10,16,11,28,22.50
2016,10,16,11,29,22.50
2016,10,16,11,30,24.20
2016,10,16,11,31,19.30
2016,10,16,11,32,20.90
2016,10,16,11,33,32.20
2016,10,16,11,34,25.70
2016,10,16,11,35,19.30
2016,10,16,11,36,20.90
2016,10,16,11,37,29.00
2016,10,16,11,38,12.90
2016,10,16,11,39,22.50
2016,10,16,11,40,29.00
2016,10,16,11,41,17.70
2016,10,16,11,42,20.90
2016,10,16,11,43,20.90
2016,10,16,11,44,19.30
2016,10,16,11,45,19.30
2016,10,16,11,46,14.50
2016,10,16,11,47,17.70
2016,10,16,11,48,20.90
2016,10,16,11,49,20.90
2016,10,16,11,50,19.30
2016,10,16,11,51,22.50
2016,10,16,11,52,19.30
2016,10,16,11,53,24.20
2016,10,16,11,54,24.20
2016,10,16,11,55,27.40
2016,10,16,11,56,22.50
2016,10,16,11,57,25.70
2016,10,16,11,58,19.30
2016,10,16,11,59,30.60
2016,10,16,12,00,24.20
2016,10,16,12,01,24.20
2016,10,16,12,02,24.20
2016,10,16,12,03,22.50
2016,10,16,12,04,11.30
2016,10,16,12,05,12.90
2016,10,16,12,06,12.90
2016,10,16,12,07,14.50
2016,10,16,12,08,20.90
2016,10,16,12,09,14.50
2016,10,16,12,10,24.20
2016,10,16,12,11,25.70
2016,10,16,12,12,22.50
2016,10,16,12,13,27.40
2016,10,16,12,14,25.70
2016,10,16,12,15,25.70
2016,10,16,12,16,25.70
2016,10,16,12,17,25.70
2016,10,16,12,18,27.40
2016,10,16,12,19,29.00
2016,10,16,12,20,20.90
2016,10,16,12,21,20.90
2016,10,16,12,22,27.40
2016,10,16,12,23,29.00
2016,10,16,12,24,30.60
2016,10,16,12,25,25.70
2016,10,16,12,26,24.20
2016,10,16,12,27,33.80
2016,10,16,12,28,30.60
2016,10,16,12,29,25.70
2016,10,16,12,30,30.60
2016,10,16,12,31,27.40
2016,10,16,12,32,25.70
2016,10,16,12,33,30.60
2016,10,16,12,34,29.00
2016,10,16,12,35,32.20
2016,10,16,12,36,33.80
2016,10,16,12,37,29.00
2016,10,16,12,38,27.40
2016,10,16,12,39,30.60
2016,10,16,12,40,30.60
2016,10,16,12,41,24.20
2016,10,16,12,42,30.60
2016,10,16,12,43,24.20
2016,10,16,12,44,17.70
2016,10,16,12,45,17.70
2016,10,16,12,46,25.70
2016,10,16,12,47,20.90
2016,10,16,12,48,22.50
2016,10,16,12,49,22.50
2016,10,16,12,50,19.30
2016,10,16,12,51,19.30
2016,10,16,12,52,20.90
2016,10,16,12,53,17.70
2016,10,16,12,54,17.70
2016,10,16,12,55,17.70
2016,10,16,12,56,17.70
2016,10,16,12,57,20.90
2016,10,16,12,58,19.30
2016,10,16,12,59,20.90
2016,10,16,13,00,22.50
2016,10,16,13,01,19.30
2016,10,16,13,02,25.70
2016,10,16,13,03,24.20
2016,10,16,13,04,24.20
2016,10,16,13,05,27.40
2016,10,16,13,06,22.50
2016,10,16,13,07,32.20
2016,10,16,13,08,29.00
2016,10,16,13,09,29.00
2016,10,16,13,10,25.70
2016,10,16,13,11,24.20
2016,10,16,13,12,16.10
2016,10,16,13,13,20.90
2016,10,16,13,14,30.60
2016,10,16,13,15,27.40
2016,10,16,13,16,22.50
2016,10,16,13,17,27.40
2016,10,16,13,18,29.00
2016,10,16,13,19,22.50
2016,10,16,13,20,25.70
2016,10,16,13,21,27.40
2016,10,16,13,22,24.20
2016,10,16,13,23,24.20
2016,10,16,13,24,29.00
2016,10,16,13,25,24.20
2016,10,16,13,26,20.90
2016,10,16,13,27,29.00
2016,10,16,13,28,27.40
2016,10,16,13,29,24.20
2016,10,16,13,30,24.20
2016,10,16,13,31,24.20
2016,10,16,13,32,30.60
2016,10,16,13,33,20.90
2016,10,16,13,34,22.50
2016,10,16,13,35,22.50
2016,10,16,13,36,30.60
2016,10,16,13,37,27.40
2016,10,16,13,38,24.20
2016,10,16,13,39,27.40
2016,10,16,13,40,22.50
2016,10,16,13,41,20.90
2016,10,16,13,42,24.20
2016,10,16,13,43,20.90
2016,10,16,13,44,19.30
2016,10,16,13,45,19.30
2016,10,16,13,46,24.20
2016,10,16,13,47,19.30
2016,10,16,13,48,20.90
2016,10,16,13,49,22.50
2016,10,16,13,50,24.20
2016,10,16,13,51,19.30
2016,10,16,13,52,17.70
2016,10,16,13,53,12.90
2016,10,16,13,54,17.70
2016,10,16,13,55,12.90
2016,10,16,13,56,12.90
2016,10,16,13,57,12.90
2016,10,16,13,58,17.70
2016,10,16,13,59,9.60
2016,10,16,14,00,20.90
2016,10,16,14,01,12.90
2016,10,16,14,02,19.30
2016,10,16,14,03,11.30
2016,10,16,14,04,19.30
2016,10,16,14,05,20.90
2016,10,16,14,06,17.70
2016,10,16,14,07,14.50
2016,10,16,14,08,17.70
2016,10,16,14,09,20.90
2016,10,16,14,10,20.90
2016,10,16,14,11,19.30
2016,10,16,14,12,20.90
2016,10,16,14,13,19.30
2016,10,16,14,14,19.30
2016,10,16,14,15,17.70
2016,10,16,14,16,17.70
2016,10,16,14,17,14.50
2016,10,16,14,18,17.70
2016,10,16,14,19,19.30
2016,10,16,14,20,22.50
2016,10,16,14,21,25.70
2016,10,16,14,22,20.90
2016,10,16,14,23,25.70
2016,10,16,14,24,24.20
2016,10,16,14,25,22.50
2016,10,16,14,26,29.00
2016,10,16,14,27,22.50
2016,10,16,14,28,19.30
2016,10,16,14,29,22.50
2016,10,16,14,30,19.30
2016,10,16,14,31,20.90
2016,10,16,14,32,19.30
2016,10,16,14,33,17.70
2016,10,16,14,34,24.20
2016,10,16,14,35,17.70
2016,10,16,14,36,22.50
2016,10,16,14,37,25.70
2016,10,16,14,38,24.20
2016,10,16,14,39,27.40
2016,10,16,14,40,25.70
2016,10,16,14,41,22.50
2016,10,16,14,42,22.50
2016,10,16,14,43,24.20
2016,10,16,14,44,22.50
2016,10,16,14,45,22.50
2016,10,16,14,46,12.90
2016,10,16,14,47,19.30
2016,10,16,14,48,24.20
2016,10,16,14,49,25.70
2016,10,16,14,50,22.50
2016,10,16,14,51,20.90
2016,10,16,14,52,25.70
2016,10,16,14,53,24.20
2016,10,16,14,54,25.70
2016,10,16,14,55,24.20
2016,10,16,14,56,25.70
2016,10,16,14,57,20.90
2016,10,16,14,58,20.90
2016,10,16,14,59,20.90
2016,10,16,15,00,25.70
2016,10,16,15,01,25.70
2016,10,16,15,02,20.90
2016,10,16,15,03,27.40
2016,10,16,15,04,30.60
2016,10,16,15,05,30.60
2016,10,16,15,06,29.00
2016,10,16,15,07,25.70
2016,10,16,15,08,29.00
2016,10,16,15,09,24.20
2016,10,16,15,10,30.60
2016,10,16,15,11,25.70
2016,10,16,15,12,29.00
2016,10,16,15,13,27.40
2016,10,16,15,14,25.70
2016,10,16,15,15,24.20
2016,10,16,15,16,29.00
2016,10,16,15,17,27.40
2016,10,16,15,18,20.90
2016,10,16,15,19,22.50
2016,10,16,15,20,19.30
2016,10,16,15,21,24.20
2016,10,16,15,22,20.90
2016,10,16,15,23,22.50
2016,10,16,15,24,20.90
2016,10,16,15,25,14.50
2016,10,16,15,26,16.10
2016,10,16,15,27,22.50
2016,10,16,15,28,24.20
2016,10,16,15,29,17.70
2016,10,16,15,30,19.30
2016,10,16,15,31,14.50
2016,10,16,15,32,19.30
2016,10,16,15,33,19.30
2016,10,16,15,34,14.50
2016,10,16,15,35,11.30
2016,10,16,15,36,11.30
2016,10,16,15,37,12.90
2016,10,16,15,38,14.50
2016,10,16,15,39,17.70
2016,10,16,15,40,12.90
2016,10,16,15,41,12.90
2016,10,16,15,42,17.70
2016,10,16,15,43,17.70
2016,10,16,15,44,14.50
2016,10,16,15,45,11.30
2016,10,16,15,46,12.90
2016,10,16,15,47,12.90
2016,10,16,15,48,19.30
2016,10,16,15,49,19.30
2016,10,16,15,50,19.30
2016,10,16,15,51,12.90
2016,10,16,15,52,14.50
2016,10,16,15,53,14.50
2016,10,16,15,54,11.30
2016,10,16,15,55,19.30
2016,10,16,15,56,17.70
2016,10,16,15,57,20.90
2016,10,16,15,58,22.50
2016,10,16,15,59,12.90
2016,10,16,16,00,19.30
2016,10,16,16,01,20.90
2016,10,16,16,02,19.30
2016,10,16,16,03,12.90
2016,10,16,16,04,17.70
2016,10,16,16,05,14.50
2016,10,16,16,06,19.30
2016,10,16,16,07,24.20
2016,10,16,16,08,20.90
2016,10,16,16,09,12.90
2016,10,16,16,10,17.70
2016,10,16,16,11,14.50
2016,10,16,16,12,20.90
2016,10,16,16,13,17.70
2016,10,16,16,14,14.50
2016,10,16,16,15,12.90
2016,10,16,16,16,11.30
2016,10,16,16,17,11.30
2016,10,16,16,18,9.60
2016,10,16,16,19,17.70
2016,10,16,16,20,12.90
2016,10,16,16,21,12.90
2016,10,16,16,22,9.60
2016,10,16,16,23,9.60
2016,10,16,16,24,9.60
2016,10,16,16,25,12.90
2016,10,16,16,26,14.50
2016,10,16,16,27,9.60
2016,10,16,16,28,12.90
2016,10,16,16,29,12.90
2016,10,16,16,30,12.90
2016,10,16,16,31,12.90
2016,10,16,16,32,12.90
2016,10,16,16,33,14.50
2016,10,16,16,34,17.70
2016,10,16,16,35,17.70
2016,10,16,16,36,12.90
2016,10,16,16,37,9.60
2016,10,16,16,38,9.60
2016,10,16,16,39,11.30
2016,10,16,16,40,12.90
2016,10,16,16,41,14.50
2016,10,16,16,42,12.90
2016,10,16,16,43,11.30
2016,10,16,16,44,12.90
2016,10,16,16,45,11.30
2016,10,16,16,46,14.50
2016,10,16,16,47,17.70
2016,10,16,16,48,3.20
2016,10,16,16,49,8.10
2016,10,16,16,50,8.10
2016,10,16,16,51,8.10
2016,10,16,16,52,6.40
2016,10,16,16,53,8.10
2016,10,16,16,54,8.10
2016,10,16,16,55,12.90
2016,10,16,16,56,8.10
2016,10,16,16,57,9.60
2016,10,16,16,58,9.60
2016,10,16,16,59,6.40
2016,10,16,17,00,9.60
2016,10,16,17,01,8.10
2016,10,16,17,02,8.10
2016,10,16,17,03,9.60
2016,10,16,17,04,11.30
2016,10,16,17,05,11.30
2016,10,16,17,06,11.30
2016,10,16,17,07,6.40
2016,10,16,17,08,14.50
2016,10,16,17,09,12.90
2016,10,16,17,10,11.30
2016,10,16,17,11,6.40
2016,10,16,17,12,8.10
2016,10,16,17,13,11.30
2016,10,16,17,14,8.10
2016,10,16,17,15,11.30
2016,10,16,17,16,14.50
2016,10,16,17,17,14.50
2016,10,16,17,18,9.60
2016,10,16,17,19,11.30
2016,10,16,17,20,9.60
2016,10,16,17,21,6.40
2016,10,16,17,22,6.40
2016,10,16,17,23,3.20
2016,10,16,17,24,3.20
2016,10,16,17,25,6.40
2016,10,16,17,26,6.40
2016,10,16,17,27,6.40
2016,10,16,17,28,6.40
2016,10,16,17,29,6.40
2016,10,16,17,30,6.40
2016,10,16,17,31,8.10
2016,10,16,17,32,6.40
2016,10,16,17,33,8.10
2016,10,16,17,34,6.40
2016,10,16,17,35,6.40
2016,10,16,17,36,6.40
2016,10,16,17,37,3.20
2016,10,16,17,38,1.60
2016,10,16,17,39,3.20
2016,10,16,17,40,3.20
2016,10,16,17,41,3.20
2016,10,16,17,42,8.10
2016,10,16,17,43,6.40
2016,10,16,17,44,8.10
2016,10,16,17,45,8.10
2016,10,16,17,46,6.40
2016,10,16,17,47,9.60
2016,10,16,17,48,9.60
2016,10,16,17,49,11.30
2016,10,16,17,50,9.60
2016,10,16,17,51,11.30
2016,10,16,17,52,8.10
2016,10,16,17,53,11.30
2016,10,16,17,54,9.60
2016,10,16,17,55,8.10
2016,10,16,17,56,11.30
2016,10,16,17,57,9.60
2016,10,16,17,58,6.40
2016,10,16,17,59,8.10
2016,10,16,18,00,3.20
2016,10,16,18,01,4.80
2016,10,16,18,02,4.80
2016,10,16,18,03,4.80
2016,10,16,18,04,4.80
2016,10,16,18,05,3.20
2016,10,16,18,06,3.20
2016,10,16,18,07,3.20
2016,10,16,18,08,6.40
2016,10,16,18,09,3.20
2016,10,16,18,10,4.80
2016,10,16,18,11,6.40
2016,10,16,18,12,4.80
2016,10,16,18,13,3.20
2016,10,16,18,14,3.20
2016,10,16,18,15,3.20
2016,10,16,18,16,1.60
2016,10,16,18,17,3.20
2016,10,16,18,18,3.20
2016,10,16,18,19,3.20
2016,10,16,18,20,3.20
2016,10,16,18,21,3.20
2016,10,16,18,22,3.20
2016,10,16,18,23,3.20
2016,10,16,18,45,4.80
2016,10,16,18,46,6.40
2016,10,16,18,47,3.20
2016,10,16,18,48,1.60
2016,10,16,18,49,3.20
2016,10,16,18,50,1.60
2016,10,16,18,51,1.60
2016,10,16,18,52,1.60
2016,10,16,18,53,1.60
2016,10,16,18,54,4.80
2016,10,16,18,55,3.20
2016,10,16,18,56,1.60
2016,10,16,18,57,1.60
2016,10,16,18,59,1.60